Weather History for Chicopee, MA

Change the Weather History Date:

Friday, February 21, 2014

  Actual Average Record
Temperature  
Mean Temperature 34 °F -  
Max Temperature 37 °F 36 °F 59 °F (2002)
Min Temperature 31 °F 19 °F 8 °F (2003)
Degree Days  
Heating Degree Days 31    
Moisture  
Dew Point 34 °F    
Average Humidity 99    
Maximum Humidity 100    
Minimum Humidity 93    
Precipitation  
Precipitation 0.53 in - - ()
Sea Level Pressure  
Sea Level Pressure 29.87 in    
Wind  
Wind Speed 4 mph (NE)    
Max Wind Speed 15 mph    
Max Gust Speed 21 mph    
Visibility 4 miles    
Events Fog , Rain , Thunderstorm    
Averages and records for this station are not official NWS values.
T = Trace of Precipitation, MM = Missing Value Source: NWS Daily Summary

Daily Weather History Graph

Daily Weather History Graph

Search for Another Location

Airport:

Trip Planner

Search our weather history database for the weather conditions in past years. The results will help you decide how hot, cold, wet, or windy it might be!

Date:

Astronomy

Feb. 21, 2014 Rise Set
Actual Time 6:37 AM EST 5:30 PM EST
Civil Twilight 6:09 AM EST 5:58 PM EST
Nautical Twilight 5:36 AM EST 6:31 PM EST
Astronomical Twilight 5:04 AM EST 7:03 PM EST
Moon No Moon Rise 9:52 AM EST
Length of Visible Light 11h 49m
Length of Day
10h 52m
Waning Gibbous, 61% of the Moon is Illuminated
Feb 21
Waning Gibbous
Feb 22
Last Quarter
Mar 1
New
Mar 8
First Quarter
Mar 16
Full

Hourly Weather History & Observations

Time (EST) Temp. Windchill Dew Point Humidity Pressure Visibility Wind Dir Wind Speed Gust Speed Precip Events Conditions
12:10 AM 33.8 °F 30.8 °F 33.8 °F 100% 30.10 in 6.0 mi ESE 3.5 mph - N/A   Overcast
12:42 AM 33.8 °F 30.8 °F 33.8 °F 100% 30.07 in 9.0 mi East 3.5 mph - N/A   Overcast
12:58 AM 34.3 °F - 34.2 °F 99% 30.10 in 10.0 mi ENE 2.3 mph - N/A   Overcast
1:02 AM 33.8 °F 30.8 °F 33.8 °F 100% 30.07 in 10.0 mi East 3.5 mph - N/A   Overcast
1:44 AM 33.8 °F 29.6 °F 33.8 °F 100% 30.07 in 10.0 mi East 4.6 mph - N/A   Overcast
1:58 AM 34.3 °F 30.2 °F 34.2 °F 99% 30.09 in 10.0 mi Variable 4.6 mph - N/A   Overcast
1:59 AM 33.8 °F 30.8 °F 33.8 °F 100% 30.06 in 10.0 mi Variable 3.5 mph - N/A   Overcast
2:10 AM 33.8 °F 29.6 °F 33.8 °F 100% 30.06 in 10.0 mi ENE 4.6 mph - N/A   Overcast
2:22 AM 33.8 °F 29.6 °F 33.8 °F 100% 30.05 in 9.0 mi ENE 4.6 mph - N/A Rain Light Rain
2:29 AM 33.8 °F 30.8 °F 33.8 °F 100% 30.05 in 10.0 mi ENE 3.5 mph - N/A Rain Light Rain
2:52 AM 33.8 °F 30.8 °F 33.8 °F 100% 30.05 in 10.0 mi NE 3.5 mph - N/A Rain Light Rain
2:57 AM 33.8 °F 29.6 °F 33.8 °F 100% 30.05 in 10.0 mi NE 4.6 mph - N/A Rain Light Rain
2:58 AM 34.5 °F 30.4 °F 34.2 °F 99% 30.08 in 10.0 mi NNE 4.6 mph - 0.01 in Rain Light Rain
3:13 AM 33.8 °F 28.6 °F 33.8 °F 100% 30.04 in 10.0 mi ENE 5.8 mph - N/A   Overcast
3:15 AM 33.8 °F 29.6 °F 33.8 °F 100% 30.03 in 10.0 mi ENE 4.6 mph - N/A   Overcast
3:29 AM 33.8 °F 28.6 °F 33.8 °F 100% 30.01 in 10.0 mi East 5.8 mph - N/A   Overcast
3:53 AM 33.8 °F 29.6 °F 33.8 °F 100% 30.01 in 10.0 mi East 4.6 mph - N/A   Overcast
3:58 AM 34.5 °F 31.6 °F 34.3 °F 99% 30.05 in 10.0 mi Variable 3.5 mph - 0.01 in   Overcast
4:11 AM 33.8 °F 29.6 °F 33.8 °F 100% 30.02 in 10.0 mi NNE 4.6 mph - N/A   Overcast
4:30 AM 33.8 °F 27.7 °F 33.8 °F 100% 30.03 in 10.0 mi North 6.9 mph - N/A Rain Light Rain
4:46 AM 33.8 °F 27.0 °F 33.8 °F 100% 30.03 in 10.0 mi NNE 8.1 mph - N/A   Overcast
4:54 AM 33.8 °F 29.6 °F 33.8 °F 100% 30.04 in 9.0 mi North 4.6 mph - N/A   Light Drizzle
4:58 AM 34.2 °F 29.0 °F 33.8 °F 99% 30.06 in 9.0 mi North 5.8 mph - 0.00 in   Light Drizzle
5:04 AM 33.8 °F 27.0 °F 33.8 °F 100% 30.04 in 8.0 mi North 8.1 mph - N/A   Overcast
5:55 AM 33.8 °F - 33.8 °F 100% 30.04 in 9.0 mi ENE 1.2 mph - N/A   Overcast
5:58 AM 34.3 °F - 34.2 °F 99% 30.06 in 8.0 mi ENE 2.3 mph - 0.00 in   Overcast
6:32 AM 33.8 °F 28.6 °F 33.8 °F 100% 30.04 in 3.0 mi NE 5.8 mph - N/A   Overcast
6:38 AM 33.8 °F 28.6 °F 33.8 °F 100% 30.03 in 2.5 mi NE 5.8 mph - N/A   Overcast
6:43 AM 33.8 °F 27.7 °F 33.8 °F 100% 30.03 in 2.0 mi NE 6.9 mph - N/A   Overcast
6:49 AM 33.8 °F 28.6 °F 33.8 °F 100% 30.03 in 2.5 mi Variable 5.8 mph - N/A   Overcast
6:58 AM 34.3 °F 29.2 °F 34.2 °F 99% 30.07 in 2.0 mi NE 5.8 mph - 0.01 in   Light Drizzle
7:11 AM 33.8 °F 30.8 °F 33.8 °F 100% 30.03 in 2.0 mi NE 3.5 mph - N/A   Light Drizzle
7:58 AM 34.5 °F 30.4 °F 34.3 °F 99% 30.05 in 2.0 mi North 4.6 mph - N/A   Light Drizzle
8:58 AM 34.9 °F 30.8 °F 34.7 °F 99% 30.03 in 2.0 mi North 4.6 mph - N/A   Light Drizzle
9:28 AM 35.6 °F 31.7 °F 35.6 °F 100% 30.00 in 1.8 mi North 4.6 mph - N/A   Light Drizzle
9:52 AM 35.6 °F 31.7 °F 35.6 °F 100% 29.98 in 1.5 mi North 4.6 mph - N/A   Light Drizzle
9:58 AM 35.2 °F 30.3 °F 34.9 °F 99% 30.01 in 1.5 mi North 5.8 mph - 0.00 in   Light Drizzle
10:58 AM 36.3 °F 31.6 °F 36.1 °F 99% 29.97 in 1.8 mi North 5.8 mph - 0.01 in   Light Drizzle
11:17 AM 37.4 °F 32.1 °F 35.6 °F 93% 29.93 in 3.0 mi North 6.9 mph - N/A   Light Drizzle
11:58 AM 36.0 °F 31.1 °F 35.8 °F 99% 29.94 in 3.0 mi North 5.8 mph - 0.00 in Rain Light Rain
12:28 PM 37.4 °F 32.8 °F 37.4 °F 100% 29.88 in 2.0 mi NNW 5.8 mph - N/A Rain Light Rain
12:58 PM 36.5 °F 31.0 °F 36.3 °F 99% 29.89 in 1.5 mi NNW 6.9 mph - 0.02 in   Light Drizzle
1:58 PM 37.6 °F 33.1 °F 37.2 °F 99% 29.83 in 2.0 mi NNW 5.8 mph - 0.01 in   Light Drizzle
2:24 PM 37.4 °F 32.1 °F 37.4 °F 100% 29.78 in 1.5 mi NW 6.9 mph - N/A   Light Drizzle
2:58 PM 35.6 °F 31.7 °F 35.6 °F 100% 29.79 in 1.5 mi North 4.6 mph - 0.00 in   Light Drizzle
3:18 PM 37.4 °F - 35.6 °F 93% 29.75 in 0.8 mi North 2.3 mph - N/A   Light Drizzle
3:22 PM 37.4 °F 34.9 °F 35.6 °F 93% 29.74 in 0.5 mi NNE 3.5 mph - N/A Fog Light Drizzle
3:33 PM 35.6 °F 32.8 °F 35.6 °F 100% 29.72 in 0.2 mi NE 3.5 mph - N/A Fog Light Drizzle
3:50 PM 35.6 °F 29.9 °F 35.6 °F 100% 29.73 in 0.5 mi NW 6.9 mph - N/A Fog Light Drizzle
3:58 PM 36.5 °F 31.8 °F 36.1 °F 99% 29.75 in 0.5 mi NNW 5.8 mph - N/A Fog Light Drizzle
4:06 PM 35.6 °F - 35.6 °F 100% 29.71 in 0.5 mi Variable 1.2 mph - N/A Fog , Rain Light Rain
4:11 PM 35.6 °F 32.8 °F 35.6 °F 100% 29.70 in 0.2 mi NNE 3.5 mph - N/A Fog , Rain Light Rain
4:21 PM 35.6 °F 26.2 °F 35.6 °F 100% 29.70 in 0.5 mi NW 15.0 mph - N/A Fog , Rain , Thunderstorm Light Rain
4:25 PM 35.6 °F 29.2 °F 35.6 °F 100% 29.70 in 0.5 mi North 8.1 mph - N/A Fog , Rain , Thunderstorm Light Thunderstorms and Rain
4:33 PM 37.4 °F 33.8 °F 37.4 °F 100% 29.68 in 0.8 mi Variable 4.6 mph - N/A Rain , Thunderstorm Heavy Thunderstorms and Rain
4:36 PM 37.4 °F 33.8 °F 37.4 °F 100% 29.68 in 0.5 mi NNE 4.6 mph - N/A Fog , Rain , Thunderstorm Heavy Thunderstorms and Rain
4:47 PM 35.6 °F 32.8 °F 35.6 °F 100% 29.67 in 0.5 mi NNE 3.5 mph - N/A Fog , Rain , Thunderstorm Heavy Thunderstorms and Rain
4:50 PM 35.6 °F - 35.6 °F 100% 29.67 in 0.5 mi NNE 2.3 mph - N/A Fog , Rain , Thunderstorm Thunderstorms and Rain
4:52 PM 35.6 °F - 35.6 °F 100% 29.67 in 0.5 mi NE 2.3 mph - N/A Fog , Rain , Thunderstorm Light Thunderstorms and Rain
4:55 PM 35.6 °F - 35.6 °F 100% 29.66 in 0.5 mi NNE 1.2 mph - N/A Fog , Rain Light Rain
4:58 PM 35.6 °F - 35.6 °F 100% 29.69 in 0.5 mi North 1.2 mph - 0.42 in Fog , Rain Light Rain
5:03 PM 37.4 °F - 35.6 °F 93% 29.65 in 0.5 mi NNW 2.3 mph - N/A Fog , Rain Rain
5:11 PM 35.6 °F 26.6 °F 35.6 °F 100% 29.67 in 0.8 mi WNW 13.8 mph - N/A Rain Light Rain
5:20 PM 35.6 °F 28.0 °F 35.6 °F 100% 29.68 in 1.5 mi NW 10.4 mph 20.7 mph N/A Rain Light Rain
5:30 PM 35.6 °F 26.6 °F 35.6 °F 100% 29.70 in 3.0 mi WNW 13.8 mph - N/A   Light Drizzle
5:43 PM 35.6 °F 26.6 °F 35.6 °F 100% 29.72 in 10.0 mi NW 13.8 mph - N/A Rain Light Rain
5:51 PM 35.6 °F 30.7 °F 35.6 °F 100% 29.73 in 6.0 mi NW 5.8 mph - N/A Rain Light Rain
5:58 PM 36.3 °F 32.5 °F 36.0 °F 99% 29.76 in 4.0 mi NNW 4.6 mph - 0.03 in Rain Rain
6:08 PM 37.4 °F 34.9 °F 35.6 °F 93% 29.72 in 6.0 mi North 3.5 mph - N/A Rain Light Rain
6:10 PM 35.6 °F 32.8 °F 35.6 °F 100% 29.72 in 8.0 mi North 3.5 mph - N/A Rain Light Rain
6:29 PM 37.4 °F 33.8 °F 35.6 °F 93% 29.73 in 6.0 mi NNE 4.6 mph - N/A Rain Light Rain
6:40 PM 35.6 °F 32.8 °F 35.6 °F 100% 29.73 in 10.0 mi NE 3.5 mph - N/A   Overcast
6:49 PM 37.4 °F - 35.6 °F 93% 29.74 in 10.0 mi Calm Calm - N/A   Overcast
6:58 PM 36.7 °F - 36.3 °F 99% 29.77 in 10.0 mi Calm Calm - 0.00 in   Overcast
7:05 PM 35.6 °F 30.7 °F 35.6 °F 100% 29.72 in 4.0 mi East 5.8 mph - N/A Rain Light Rain
7:27 PM 37.4 °F - 37.4 °F 100% 29.72 in 10.0 mi ESE 1.2 mph - N/A   Overcast
7:58 PM 35.1 °F 32.2 °F 34.7 °F 99% 29.76 in 6.0 mi WSW 3.5 mph - 0.01 in   Overcast
8:14 PM 35.6 °F 31.7 °F 35.6 °F 100% 29.76 in 5.0 mi WSW 4.6 mph - N/A   Mostly Cloudy
8:32 PM 33.8 °F 30.8 °F 33.8 °F 100% 29.76 in 2.5 mi West 3.5 mph - N/A   Scattered Clouds
8:40 PM 33.8 °F - 33.8 °F 100% 29.77 in 2.0 mi West 2.3 mph - N/A   Partly Cloudy
8:42 PM 33.8 °F - 33.8 °F 100% 29.77 in 1.5 mi West 2.3 mph - N/A   Partly Cloudy
8:48 PM 33.8 °F - 33.8 °F 100% 29.78 in 0.5 mi Calm Calm - N/A Fog Fog
8:58 PM 34.3 °F - 34.0 °F 99% 29.81 in 0.5 mi SW 2.3 mph - N/A Fog Fog
9:29 PM 35.6 °F - 33.8 °F 93% 29.80 in 3.0 mi South 2.3 mph - N/A Fog Shallow Fog
9:52 PM 32.0 °F - 32.0 °F 100% 29.80 in 0.5 mi ESE 2.3 mph - N/A Fog Light Freezing Fog
9:56 PM 32.0 °F 27.5 °F 32.0 °F 100% 29.80 in 0.5 mi SSE 4.6 mph - N/A Fog Light Freezing Fog
9:58 PM 31.1 °F 26.4 °F 30.9 °F 99% 29.84 in 0.5 mi SSE 4.6 mph - N/A Fog Light Freezing Fog
10:20 PM 32.0 °F 28.7 °F 32.0 °F 100% 29.81 in 0.8 mi SSE 3.5 mph - N/A   Mist
10:29 PM 33.8 °F 27.7 °F 33.8 °F 100% 29.81 in 0.5 mi SE 6.9 mph - N/A Fog Fog
10:32 PM 33.8 °F 27.7 °F 33.8 °F 100% 29.82 in 0.2 mi SE 6.9 mph - N/A Fog Fog
10:48 PM 33.8 °F 28.6 °F 33.8 °F 100% 29.83 in 0.5 mi SSE 5.8 mph - N/A Fog Fog
10:53 PM 33.8 °F 27.7 °F 32.0 °F 93% 29.83 in 0.2 mi SSE 6.9 mph - N/A Fog Fog
10:58 PM 32.0 °F 25.6 °F 32.0 °F 100% 29.86 in 0.2 mi SSE 6.9 mph - N/A Fog Fog
11:05 PM 32.0 °F 27.5 °F 32.0 °F 100% 29.83 in 0.5 mi SSE 4.6 mph - N/A Fog Fog
11:09 PM 32.0 °F - 32.0 °F 100% 29.84 in 0.5 mi Variable 2.3 mph - N/A Fog Fog
11:20 PM 32.0 °F - 32.0 °F 100% 29.85 in 0.5 mi SSW 2.3 mph - N/A Fog Light Freezing Fog
11:22 PM 32.0 °F - 32.0 °F 100% 29.85 in 0.2 mi South 2.3 mph - N/A Fog Light Freezing Fog
11:25 PM 32.0 °F 28.7 °F 32.0 °F 100% 29.84 in 0.2 mi SSE 3.5 mph - N/A Fog Light Freezing Fog
11:31 PM 32.0 °F - 32.0 °F 100% 29.85 in 0.2 mi East 1.2 mph - N/A Fog Light Freezing Fog
11:36 PM 32.0 °F - 32.0 °F 100% 29.85 in 0.5 mi SE 2.3 mph - N/A Fog Light Freezing Fog
11:40 PM 32.0 °F - 32.0 °F 100% 29.86 in 0.5 mi SSE 1.2 mph - N/A Fog Light Freezing Fog
11:52 PM 32.0 °F - 32.0 °F 100% 29.85 in 0.5 mi SSE 2.3 mph - N/A Fog Light Freezing Fog
11:58 PM 31.6 °F - 31.3 °F 99% 29.89 in 0.5 mi East 1.2 mph - N/A Fog Light Freezing Fog